Location: Unspecified
(0.0000°N, 0.0000°E)
Time: 07:14:36
(UTC+00:00)

Vanguard 2 Rocket - Pass Details

Date: 26 October 2025
Orbit: 553 x 3288 km, 32.9° (Epoch: 15 November)

Event Time Altitude Azimuth Distance (km) Brightness Sun altitude
Rises 18:01:26 0° 210° (SSW) 2,768 10.1 -4.3°
Reaches altitude 10° 18:03:48 10° 194° (SSW) 1,977 9.0 -4.8°
Maximum altitude 18:07:23 24° 139° (SE) 1,506 7.8 -5.7°
Drops below altitude 10° 18:12:08 10° 87° (E) 2,695 8.7 -6.9°
Enters shadow 18:12:54 - 83° (E) 2,960 8.8 -7.1°
Sets 18:16:00 0° 74° (ENE) 4,088 - -7.8°
